TimeCST,TemperatureF,Dew PointF,Humidity,Sea Level PressureIn,VisibilityMPH,Wind Direction,Wind SpeedMPH,Gust SpeedMPH,PrecipitationIn,Events,Conditions,WindDirDegrees,DateUTC
12:40 AM,78.8,75.2,89,29.90,10.0,Calm,Calm,-,N/A,,Mostly Cloudy,0,2012-11-07 06:40:00
1:40 AM,78.8,75.2,89,29.90,10.0,Calm,Calm,-,N/A,,Scattered Clouds,0,2012-11-07 07:40:00
2:40 AM,-9999,-9999,N/A,29.80,10.0,Calm,Calm,-,N/A,,Scattered Clouds,0,2012-11-07 08:40:00
3:40 AM,77.0,73.4,89,29.86,10.0,Calm,Calm,-,N/A,,Unknown,0,2012-11-07 09:40:00
4:40 AM,77.0,71.6,83,29.86,10.0,Calm,Calm,-,N/A,,Scattered Clouds,0,2012-11-07 10:40:00
5:40 AM,77.0,73.4,89,29.84,10.0,Calm,Calm,-,N/A,,Scattered Clouds,0,2012-11-07 11:40:00
6:40 AM,77.0,71.6,83,29.88,10.0,Calm,Calm,-,N/A,,Scattered Clouds,0,2012-11-07 12:40:00
7:40 AM,78.8,75.2,89,29.91,10.0,Calm,Calm,-,N/A,,Scattered Clouds,0,2012-11-07 13:40:00
8:45 AM,84.2,75.2,74,29.88,10.0,Calm,Calm,-,N/A,,Scattered Clouds,0,2012-11-07 14:45:00
9:40 AM,87.8,77.0,70,29.95,10.0,Calm,Calm,-,N/A,,Mostly Cloudy,0,2012-11-07 15:40:00
10:52 AM,87.8,73.4,62,29.94,10.0,WSW,8.1,-,N/A,,Scattered Clouds,250,2012-11-07 16:52:00
11:46 AM,87.8,75.2,66,29.87,10.0,WSW,8.1,-,N/A,,Scattered Clouds,250,2012-11-07 17:46:00
12:40 PM,87.8,75.2,66,29.87,10.0,SW,9.2,-,N/A,,Mostly Cloudy,230,2012-11-07 18:40:00
1:40 PM,87.8,75.2,66,29.84,10.0,SW,9.2,-,N/A,,Mostly Cloudy,230,2012-11-07 19:40:00
2:40 PM,86.0,77.0,74,29.79,10.0,SW,9.2,-,N/A,,Mostly Cloudy,230,2012-11-07 20:40:00
3:50 PM,86.0,78.8,79,29.84,10.0,SW,11.5,-,N/A,,Scattered Clouds,220,2012-11-07 21:50:00
4:40 PM,86.0,78.8,79,29.84,10.0,WSW,9.2,-,N/A,,Scattered Clouds,240,2012-11-07 22:40:00
5:40 PM,84.2,78.8,84,29.81,10.0,Calm,Calm,-,N/A,,Scattered Clouds,0,2012-11-07 23:40:00
6:40 PM,84.2,78.8,84,29.83,10.0,Calm,Calm,-,N/A,,Scattered Clouds,0,2012-11-08 00:40:00
7:40 PM,84.2,78.8,84,29.88,10.0,Calm,Calm,-,N/A,,Scattered Clouds,0,2012-11-08 01:40:00
8:40 PM,80.6,78.8,94,29.83,10.0,Calm,Calm,-,N/A,,Scattered Clouds,0,2012-11-08 02:40:00
9:40 PM,80.6,77.0,89,29.94,10.0,Calm,Calm,-,N/A,,Scattered Clouds,0,2012-11-08 03:40:00
10:40 PM,80.6,77.0,89,29.94,10.0,Calm,Calm,-,N/A,,Scattered Clouds,0,2012-11-08 04:40:00
11:42 PM,77.0,73.4,89,29.78,10.0,Calm,Calm,-,N/A,,Scattered Clouds,0,2012-11-08 05:42:00